Location: Dortmund
(51.5019°N, 7.6520°E)
Time: 09:40:12
(UTC+01:00)

ISS - Pass Details

Date: 12 January 2018
Orbit: 401 x 406 km, 51.6° (Epoch: 17 January)

Event Time Altitude Azimuth Distance (km) Brightness Sun altitude
Exits shadow 06:24:54 36° 206° (SSW) 667 -2.9 -18.7°
Drops below altitude 10° 06:27:54 10° 140° (SE) 1,461 -0.3 -18.3°
Sets 06:30:04 0° 131° (SE) 2,320 1.1 -17.9°
